www.pogodaiklimat.ru

Погода и климат >> Архив погоды >> Россия >> Магаданская область >> Совхоз Эльген


ПОГОДА в Совхозе Эльген

  • Прогноз погоды в Совхозе Эльген
  • Монитор погоды в Совхозе Эльген
  • Климат города

АРХИВ ПОГОДЫ в Совхозе Эльген

Время (UTC), дата Ветер
(напр.,м/с)
 
Видим.   Явления Облачность Т
(С)
Тd
(С)
f
(%)
Тe
(С)
Тes
(С)
Комфортность P
(гПа)
Po
(гПа)
Тmin
(С)
Tmax
(С)
R
(мм)
R24
(мм)
S
(см)
00 14.09 СЗ 1 50 км 10/10 1000 м
[Cb cap]
+3.7 +0.9 82 +2 +2 1018.3 980.0
03 14.09 СЗ 2 20 км слабый ливневой дождь 10/10 1000 м
[Cb cap]
+4.1 +1.9 86 +1 +1 1016.5 978.3
06 14.09 СВ 1 50 км {ливн. осадки} 8/8 1000 м
[Cb cap]
+5.1 +1.4 77 +4 +4 1015.0 977.0
09 14.09 штиль 0 50 км {ливн. осадки} 10/10 600 м
[Cb cap]
+3.1 +0.7 84 +2 +2 1014.5 976.2 +6.1 1
12 14.09 штиль 0 50 км {ливн. осадки} 10/10 600 м
[Cb cap]
+1.8 +0.9 94 +1 +1 1013.7 975.3
15 14.09 штиль 0 50 км 10/10 600 м
[Cb cap]
+1.1 +0.2 94 -0 -0 1013.1 974.6
18 14.09 СЗ 1 50 км 10/10 600 м
[Cb cap]
+1.3 -0.2 90 -1 -1 1012.3 973.9
21 14.09 СЗ 1 50 км 10/10 600 м
[Cb cap]
+1.7 -0.4 86 -0 -0 1012.1 973.7 +0.8
00 15.09 СЗ 1 50 км 10/10 1000 м
[Cb cap]
+5.2 -0.3 68 +4 +4 1010.5 972.6
03 15.09 СЗ 2 50 км 10/10 1000 м
[Cb cap]
+6.2 -0.1 64 +4 +4 1008.7 971.0
06 15.09 СЗ 2 50 км 10/10 1000 м
[Cb cap]
+7.2 +0.3 62 +5 +5 1007.5 970.1
09 15.09 ЮЗ 1 50 км 10/8 1000 м
[Cb cap Ac trans]
+3.7 -0.1 76 +2 +2 1007.6 969.7 +7.3
12 15.09 З 1 50 км 9/6 1000 м
[Sc Ac trans Ci fib]
+3.7 -0.1 76 +2 +2 1007.6 969.2
15 15.09 штиль 0 50 км 10/8 1000 м
[Sc Ac trans]
+0.1 -1.0 92 -1 -1 1007.3 968.9
18 15.09 СВ 1 50 км 9/6 1000 м
[Sc Ac trans Ci fib]
-1.4 -2.0 96 -4 -4 1007.4 968.8
21 15.09 штиль 0 50 км 9/6 1000 м
[Sc Ac trans Ci fib]
-0.8 -1.3 96 -2 -2 1007.6 969.0 -2.9
00 16.09 СВ 1 50 км 4/3 1000 м
[Sc Ac trans]
+8.3 +0.5 58 +8 +11 1005.9 968.6
03 16.09 С 1 50 км 6/6 1000 м
[Cu hum]
+12.1 -1.4 39 +13 +15 1004.2 967.5
06 16.09 В 1 50 км 4/4 1000 м
[Cu hum]
+12.4 -2.0 37 +13 +14 1003.5 966.9
09 16.09 СВ 1 50 км 4/3 1000 м
[Sc Ac trans]
+6.8 +0.1 62 +6 +6 1005.0 967.6 +13.1
12 16.09 Ю 1 50 км 3/0
[Ac trans]
+1.8 -1.8 77 0 0 1006.7 968.5
15 16.09 штиль 0 50 км ясно -4.3 -5.1 94 -5 -5 1008.1 969.0
18 16.09 штиль 0 50 км ясно -6.6 -7.3 95 -8 -8 1009.0 969.6
21 16.09 штиль 0 50 км ясно -3.0 -4.1 92 -4 -4 1008.8 969.9 -7.2
00 17.09 ЮВ 1 50 км 3/0
[Ci fib]
+5.7 -0.2 66 +5 +9 1007.0 969.4
03 17.09 ЮВ 1 50 км 6/0
[Ac trans Ci fib]
+10.2 +1.0 53 +10 +14 1004.8 967.8
06 17.09 ЮВ 1 50 км 9/3 1000 м
[Sc Ac trans Ci fib]
+11.5 +1.3 49 +12 +12 1004.1 967.3
09 17.09 СВ 1 50 км 9/4 1000 м
[Sc Ac trans Ci fib]
+6.2 +0.9 69 +5 +5 1005.7 968.2 +11.6
12 17.09 штиль 0 50 км 9/6 1000 м
[Sc Ac trans Ci fib]
+3.0 +0.1 81 +2 +2 1007.0 969.0
15 17.09 СВ 2 50 км 10/8 1000 м
[Sc Ac trans]
+4.9 +1.1 76 +2 +2 1007.6 969.8
18 17.09 З 1 50 км 10/10 1000 м
[Sc]
+3.9 +0.8 80 +3 +3 1008.1 970.2
21 17.09 штиль 0 50 км 9/6 1000 м
[Sc Ac trans Ci fib]
+2.2 +0.4 88 +1 +1 1009.1 970.9 -0.6
00 18.09 С 1 50 км 9/5 1000 м
[Cb cap Ac trans Ci fib]
+8.7 +2.9 67 +8 +9 1008.0 970.8
03 18.09 СВ 1 50 км 10/10 1000 м
[Cb cap]
+11.8 +3.4 56 +12 +12 1006.2 969.4
06 18.09 ЮВ 3 50 км 9/6 1000 м
[Cb cap Ac trans Ci fib]
+11.6 +3.4 57 +10 +10 1006.6 969.8
09 18.09 В 1 50 км 10/10 1000 м
[Cb cap]
+9.4 +2.7 63 +9 +9 1007.4 970.2 +12.5
12 18.09 СЗ 2 50 км 10/10 1000 м
[Cb cap]
+6.5 +2.2 74 +4 +4 1008.1 970.5
15 18.09 СЗ 1 50 км 10/10 1000 м
[Cb cap]
+5.8 +2.0 77 +5 +5 1007.7 970.1
18 18.09 СЗ 3 50 км 10/10 1000 м
[Cb cap]
+5.8 +1.3 73 +3 +3 1007.6 970.0
21 18.09 СЗ 2 50 км 10/10 1000 м
[Cb cap]
+6.1 +0.6 68 +4 +4 1007.6 970.0 +5.3
00 19.09 СЗ 2 50 км 10/10 1000 м
[Cb cap]
+5.8 +2.0 77 +3 +3 1007.5 969.9
03 19.09 СЗ 2 50 км {ливн. осадки} 10/10 600 м
[Cb cap]
+6.9 +1.3 67 +5 +5 1006.8 969.3
06 19.09 С 4
{10}
50 км {ливн. осадки} 10/10 600 м
[Cb cap]
+6.2 +0.6 67 +3 +3 1006.8 969.2
09 19.09 С 3 50 км 10/10 600 м
[Cb cap]
+4.9 +0.8 75 +2 +2 1007.6 969.8 +7.4 0.0
12 19.09 СЗ 3 20 км слабый ливневой дождь 10/10 600 м
[Cb cap]
+3.8 +1.0 82 0 0 1007.7 969.8
15 19.09 СЗ 2 10 км слабый ливневой дождь 10/10 600 м
[Cb cap]
+2.9 +1.6 91 -0 -0 1008.4 970.3
18 19.09 СЗ 2 10 км слабый ливневой дождь 10/10 600 м
[Cb cap]
+2.6 +1.1 90 -1 -1 1009.3 971.1
21 19.09 СЗ 3 10 км слабый ливневой дождь 10/10 600 м
[Cb cap]
+2.1 +1.1 93 -2 -2 1009.8 971.6 +2.1 5
00 20.09 СЗ 3 10 км слабый ливневой дождь 10/10 600 м
[Cb cap]
+3.0 +1.9 92 -1 -1 1010.1 972.0
03 20.09 СЗ 2 10 км слабый ливневой дождь 10/10 600 м
[Cb cap]
+4.1 +2.7 91 +1 +1 1010.5 972.5
06 20.09 СЗ 2 20 км слабый ливневой дождь 10/10 600 м
[Cb cap]
+4.1 +2.9 92 +1 +1 1011.0 973.0
09 20.09 СЗ 3 10 км слабый ливневой дождь 10/10 600 м
[Cb cap]
+2.8 +1.9 94 -1 -1 1012.1 973.9 +4.4 5
12 20.09 СЗ 3 10 км слабый ливневой дождь 10/10 600 м
[Cb cap]
+2.3 +1.4 94 -2 -2 1012.7 974.4
15 20.09 СЗ 3 20 км слабый ливневой дождь 10/10 600 м
[Cb cap]
+1.9 +1.1 94 -3 -3 1013.0 974.6
18 20.09 СЗ 2 20 км слабый ливневой дождь 10/10 600 м
[Cb cap]
+1.6 +0.8 94 -2 -2 1013.1 974.6

 

Местоположение метеостанции Совхоз Эльген (Магаданская область, Россия): широта 62.80 долгота 150.60 высота над уровнем моря 312 м.

В архиве по умолчанию представлена погода в Совхозе Эльген за последнюю неделю. Архивные данные за месяц целиком и за предыдущие месяцы, начиная с января 2011 года, Вы можете получить, выбрав интересующий диапазон дат из раскрывающегося списка и нажав кнопку "Ввод!".


*Определитесь, кто Вы:
робот инопланетянин человек

Внимание! Время в таблицах - всемирное. Для получения местного времени необходимо прибавить поправку, которая в Совхозе Эльген равна 11 ч.

Смотрите также архив погоды в соседних городах и на ближайших метеорологических станциях:

Погода в Ягодной (Магаданская область, Россия) (60 км)
Погода в Усть-Бохапче (Магаданская область, Россия) (78 км)
Погода в Сеймчане (Магаданская область, Россия) (92 км)
Погода в Среднекане (Магаданская область, Россия) (95 км)
Погода в Озере Джека Лондона (Магаданская область, Россия) (98 км)
Погода в Сусумане (Магаданская область, Россия) (127 км)
Погода в Колымской (Магаданская область, Россия) (188 км)
Погода в Усть-Омчуге (Магаданская область, Россия) (194 км)
Погода в Талае (Магаданская область, Россия) (206 км)
Погода в Балыгычане (Магаданская область, Россия) (214 км)

Пояснения к столбцам:

Ветер - указаны скорость ветра в м/с - средняя за 10 мин, порывы в срок и между сроками (в фигурных скобках) и направление, откуда дует ветер: С - северный, СВ - северо-восточный, В - восточный, ЮВ - юго-восточный, Ю - южный, ЮЗ - юго-западный, З - западный, СЗ - северо-западный.
Видимость - горизонтальная дальность видимости в метрах или километрах. При видимости от 1 до 10 км при отсутствии осадков обычно наблюдается дымка, при ухудшении видимости до 1 км и менее - туман. В сухую погоду видимость может ухудшаться дымом, пылью или мглою.
Явления - указаны атмосферные явления, наблюдавшиеся в срок или в последний час перед сроком; фигурными скобками обозначены явления, наблюдавшиеся между сроками (за 1-3 часа до срока); квадратными скобками обозначены град или гололедные отложения с указанием их диаметра в мм.
Облачность - указаны через наклонную черту общая и нижняя облачность в баллах и высота нижней границы облаков в метрах; квадратными скобками обозначены формы облаков: Ci - перистые, Cs - перисто-слоистые, Cc - перисто-кучевые, Ac - высококучевые, As - высокослоистые, Sc - слоисто-кучевые, Ns - слоисто-дождевые, Cu - кучевые, Cb - кучево-дождевые. Подробнее классификацию облаков см. в Атласе облаков (PDF).
T - Температура воздуха - температура, измеренная на высоте 2 м над землей.
Td - Температура точки росы - температура, при понижении до которой содержащийся в воздухе водяной пар достигнет насыщения.
f - Относительная влажность воздуха - влажноcть воздуха, измеренная на высоте 2 м над землей.
Te - Эффективная температура - температура, которую ощущает одетый по сезону человек в тени. Характеристика душности погоды. При расчете учитывается влияние влажности воздуха и скорости ветра на теплоощущения человека.
Tes - Эффективная температура на солнце - температура, которую ощущает человек, с поправкой на солнечный нагрев. Характеристика знойности погоды. Зависит от высоты солнца над горизонтом, облачности и скорости ветра. Ночью, в пасмурную погоду, а также при ветре 12 м/с и более поправка равна нулю.
P - Атмосферное давление - приведенное к уровню моря атмосферное давление.
Po - Атмосферное давление - измеренное на уровне метеостанции атмосферное давление.
Tmin - Минимальная температура - минимум температуры воздуха на высоте 2 м над землей.
Tmax - Максимальная температура - максимум температуры воздуха на высоте 2 м над землей.
R - Количество осадков - Количество выпавших осадков за период времени, мм. При наведении курсора мыши на число - период времени, за который выпало указанное количество осадков.
R24 - Количество осадков - Количество выпавших осадков за 24 часа, мм.
S - Снежный покров - Высота снежного покрова, см. При наведении курсора мыши на число - состояние снежного покрова и степень покрытия местности в баллах.